Regional Weather Roundup
Issued by NWS

Home | Current Version | Previous Version | Graphics & Text | Print | Product List | Glossary On
Versions: 1 2 3 4 5 6 7 8 9 10 11 12 13 14 15 16 17 18 19 20 21 22 23 24 25 26 27 28 29 30 31 32 33 34 35 36 37 38 39 40 41 42 43 44 45 46 47 48 49 50
000
ASUS43 KMKX 270311
RWRWI

WISCONSIN REGIONAL WEATHER ROUNDUP
NATIONAL WEATHER SERVICE MILWAUKEE/SULLIVAN WI
1000 PM CDT TUE JUL 26 2016

NOTE: "FAIR" INDICATES FEW OR NO CLOUDS BELOW 12,000 FEET WITH NO
SIGNIFICANT WEATHER AND/OR OBSTRUCTIONS TO VISIBILITY.

WIZ001-002-006>008-014>016-023>028-270400-
NORTHWEST WISCONSIN

CITY           SKY/WX    TMP DP  RH WIND       PRES   REMARKS
SUPERIOR ARPT  CLOUDY    75  66  72 W6        29.96R
ASHLAND        MOCLDY    71  67  87 W3        29.96R
HAYWARD        CLOUDY    75  68  78 W10G17    30.01R
SIREN          CLOUDY    70  63  78 CALM      30.00S
CUMBERLAND     PTCLDY    73  63  68 NW10G16   30.01R
RICE LAKE      PTCLDY    75  67  75 W6        30.01R
CHETEK         PTCLDY    76  67  75 SW5       29.99R
LADYSMITH      CLOUDY    74  68  80 CALM      30.00R
EAU CLAIRE     CLOUDY    77  68  73 SW6       29.97R
MENOMONIE      MOCLDY    78  66  67 SW6       29.98R HX  80
NEW RICHMOND   MOCLDY    75  65  70 N6        30.01R
OSCEOLA        CLOUDY    74  62  64 N5        30.02R
$$

WIZ003>005-009-010-017-018-270400-
NORTH CENTRAL WISCONSIN

CITY           SKY/WX    TMP DP  RH WIND       PRES   REMARKS
MANITOWISH WTR PTCLDY    67  67 100 CALM      30.00S
ARBOR VITAE    PTCLDY    69  67  90 CALM      30.01R
WOODRUFF       PTCLDY    69  67  90 CALM      30.01R
RHINELANDER    CLOUDY    74  63  68 N3        30.02R
EAGLE RIVER    CLOUDY    65  65  99 CALM      30.00F
LAND O LAKES   PTCLDY    65  64  97 CALM      30.01F
PHILLIPS       MOCLDY    71  68  92 CALM      29.99S
TOMAHAWK       CLEAR     67  64  89 CALM      30.01R
MEDFORD        CLEAR     71  67  88 SW5       30.01R
MERRILL        CLEAR     73  67  79 CALM      30.00S
$$

WIZ029-030-035-036-043>047-270400-
CENTRAL WISCONSIN

CITY           SKY/WX    TMP DP  RH WIND       PRES   REMARKS
WAUSAU         CLEAR     76  67  73 SW5       29.99R
MOSINEE        CLEAR     73  68  83 SW6       30.01R
MARSHFIELD     CLEAR     72  66  81 SW6       30.00S
STEVENS POINT  CLEAR     76  67  73 SW7       30.01R
WAUPACA        CLEAR     76  69  77 SW3       29.99S
WAUTOMA        CLEAR     74  69  85 CALM      30.01R
WISC RAPIDS    CLEAR     74  66  76 SW5       30.01R
CAMP DOUGLAS   PTCLDY    68  66  94 SE1       30.01R
$$

WIZ011>013-019>022-031-037>040-048>050-270400-
NORTHEAST WISCONSIN

CITY           SKY/WX    TMP DP  RH WIND       PRES   REMARKS
ANTIGO         PTCLDY    71  66  84 CALM      30.02S
SHAWANO        CLEAR     77  68  72 CALM      29.98R
OCONTO         CLEAR     75  72  88 SW3       29.95S
STURGEON BAY   CLEAR     77  68  73 SW7       29.97R
GREEN BAY      CLEAR     75  70  84 SW3       29.98R
MANITOWOC      CLEAR     71  60  68 CALM      30.00R
APPLETON       PTCLDY    75  64  69 SW6       29.98R
CLINTONVILLE   CLEAR     75  64  69 SW5       29.98R
OSHKOSH        PTCLDY    74  67  78 S5        29.99S
$$

WIZ032>034-041-042-053>061-270400-
SOUTHWEST WISCONSIN

CITY           SKY/WX    TMP DP  RH WIND       PRES   REMARKS
LA CROSSE      CLEAR     79  69  71 S6        29.99R HX  81
SPARTA         CLEAR     70  67  89 CALM      30.02R
VIROQUA        CLEAR     73  66  79 S6        30.03S
BOSCOBEL       CLEAR     72  70  93 CALM      30.02R
PRAIRIE DU CHI CLEAR     73  67  82 CALM      30.01S
PLATTEVILLE    CLEAR     75  69  80 SW3       30.03S
$$

WIZ056-057-062-063-064-067-068-270400-
SOUTH CENTRAL WISCONSIN

CITY           SKY/WX    TMP DP  RH WIND       PRES   REMARKS
REEDSBURG      PTCLDY    73  69  90 CALM      30.01R
BARABOO/DELLS  CLEAR     73  65  78 SW5       30.02R
LONE ROCK      CLEAR     71  68  90 CALM      30.02R
MINERAL POINT  CLEAR     73  68  83 W3        30.04R
MADISON        CLEAR     73  66  78 CALM      30.02R
MIDDLETON      CLEAR     71  67  88 CALM      30.03R
WATERTOWN      CLEAR     73  68  82 NW3       30.02R
MONROE         CLEAR     73  64  73 SW6       30.03S
JANESVILLE     NOT AVBL
$$

WIZ051-052-058>065-066-070>072-270400-
SOUTHEAST WISCONSIN

CITY           SKY/WX    TMP DP  RH WIND       PRES   REMARKS
MILWAUKEE      CLEAR     77  62  59 S6        30.00R
WAUKESHA       CLEAR     72  63  73 S5        30.02S
MILWAUKEE/TIMM CLEAR     73  57  56 S5        30.01S
RACINE         CLEAR     72  65  78 S3        30.02S
BURLINGTON     CLEAR     69  66  89 CALM      30.02R
KENOSHA        CLEAR     74  64  71 S7        30.01S
FOND DU LAC    PTCLDY    72  67  84 S6        30.01R
SHEBOYGAN      MOCLDY    69  63  81 SW5       30.01R
WEST BEND      CLEAR     72  64  78 CALM      30.02R
JUNEAU         CLEAR     73  66  79 CALM      30.03S
$$

LSZ147-162-270400-
LAKE SUPERIOR

STATION/POSITION TIME  TEMP    WIND        PRES    WAVE
                       AIR SEA DIR/SP/G            HT/PER
                 (UTC) (F)     (DEG/KT/KT) (MB)    (FT/S)
W MID LAKE BUOY  0250   67 63  250/  8/ 10 1012.9R   0
DEVILS ISLAND    0300   70     230/  9/ 11 1013.8R
PORT WING        0240   74     160/  5/  5 1014.2R
SAXON HARBOR     0200   74     200/  2/  2 1013.5
$$

LMZ867-665-643>646-270400-
LAKE MICHIGAN

STATION/POSITION TIME  TEMP    WIND        PRES    WAVE
                       AIR SEA DIR/SP/G            HT/PER
                 (UTC) (F)     (DEG/KT/KT) (MB)    (FT/S)
CHAMBERS ISLAND  0200   80     190/  4/ 13 1013.5R
S GREEN BAY BUOY 0200   79 74  210/ 12/ 14   N/A
N MID LAKE BUOY  0250   72 69  210/ 17/ 19 1012.2F   3/ 4
NORTHPORT PIER   0200   78     190/  3/  7 1013.2R
SISTER BAY       0221   81     220/ 13/ 15   N/A
ALGOMA LAKESHORE 0243          220/  6/  8   N/A
KEWAUNEE LAKESHO 0200   63                   N/A
SHEBOYGAN LAKESH 0300   75     220/  7/  8 1016.0R
PORT WASHINGTON  0240   66      CALM  /  2 1016.6R
ATWATER BUOY     0200   69 63  180/  8/ 10 1017.4S
MILWAUKEE LAKESH 0210   76     170/  6/  6   N/A
S MID LAKE BUOY  0250   76 76  160/  8/  8 1015.3S   0
KENOSHA   LAKESH 0300   76     210/  5/  8 1015.6S
$$

TC  - TEMPERATURE IN CELSIUS
VSB - VISIBILITY IN STATUTE MILES
WCI - WIND CHILL INDEX
HX  - HEAT INDEX





USA.gov is the U.S. government's official web portal to all federal, state and local government web resources and services.